Theta_e
327 327 328 328 327 327 326 328 332 332 331 331 332 333 333 334 333 334 332 331 331 331 335 337 335 336 336 336 335 335 336 335 334 335 336 335 335 333 333 333 333 333 335 335 334 333 334 334 334 333 333 334 334 335 336 336 335 335 336 335 335 331
326 326 326 326 326 325 325 326 329 330 330 330 331 332 332 333 333 333 333 332 331 330 332 335 335 336 336 335 333 334 336 334 335 336 336 335 335 334 334 333 332 331 333 335 334 332 334 335 335 334 333 333 333 334 335 336 335 335 335 335 335 331
325 324 324 324 324 324 325 326 327 327 328 329 331 332 331 332 332 332 332 333 333 332 332 334 335 336 336 335 333 334 336 333 334 336 335 335 335 336 335 333 332 332 331 333 332 331 333 334 335 335 334 333 333 333 333 334 334 335 335 335 335 332
323 322 322 322 323 324 326 327 327 326 325 327 330 330 331 332 332 331 331 332 333 334 334 335 336 336 335 335 333 334 334 333 334 335 334 334 335 336 335 334 333 334 333 331 330 329 331 333 334 334 334 333 333 333 333 333 334 335 335 335 335 333
319 319 320 322 323 324 326 327 327 326 324 325 328 329 331 332 331 330 330 331 332 334 335 335 336 335 335 334 333 333 333 333 334 334 334 334 335 334 335 334 334 335 335 333 331 330 329 330 332 333 333 333 333 333 333 333 333 334 335 335 335 334
316 319 321 323 324 324 324 325 324 324 325 326 328 329 331 331 329 330 331 330 332 332 333 334 335 335 335 334 334 333 333 332 333 333 333 333 334 334 334 334 335 335 335 335 335 334 331 329 329 331 333 333 332 332 333 333 333 334 335 335 334 335
315 318 320 321 320 320 320 321 322 322 324 326 327 327 329 328 328 331 331 330 330 330 331 332 333 334 334 334 334 333 333 332 333 333 333 333 333 333 333 334 335 335 335 335 336 336 335 332 329 329 330 333 334 333 333 333 333 333 335 335 334 335
315 315 316 317 316 317 318 318 319 321 323 325 326 326 326 327 328 330 330 330 330 329 330 331 331 332 333 334 334 334 334 333 334 334 334 334 334 334 333 333 333 334 335 336 336 336 336 335 333 330 330 332 333 333 333 333 333 333 335 335 334 335
315 314 315 316 316 318 318 317 318 320 322 323 324 326 327 328 329 330 330 329 329 329 329 329 330 330 332 332 333 334 334 335 335 335 335 335 335 334 334 333 332 333 334 335 335 335 335 336 335 334 333 333 333 333 333 333 333 333 334 335 334 334
315 314 315 316 317 319 319 318 318 319 321 322 323 325 327 327 328 328 327 327 327 328 329 329 329 330 330 331 332 333 334 335 335 335 335 335 335 335 334 334 333 333 333 334 334 334 334 334 334 334 334 334 334 334 334 333 334 334 334 336 335 334
315 313 315 315 316 319 318 317 318 319 321 322 323 324 325 325 325 325 325 325 326 327 327 327 328 329 329 330 331 332 333 334 335 335 335 335 336 335 335 335 334 334 334 334 334 334 334 334 333 334 334 334 334 334 334 335 335 335 335 336 335 334
314 312 313 314 316 318 318 317 317 318 320 321 322 323 323 323 323 324 324 324 324 325 326 326 327 327 327 328 329 330 331 332 333 334 334 335 335 335 335 335 334 334 335 335 334 334 334 334 334 333 334 334 334 334 335 335 336 335 335 336 334 334
313 311 312 312 314 317 317 317 317 317 318 319 320 321 321 321 321 322 322 323 323 323 324 324 325 325 326 327 327 328 329 330 332 332 334 334 334 335 335 335 335 335 335 335 334 334 334 334 334 334 334 334 334 335 335 336 336 336 336 334 333 334
313 311 312 312 313 315 316 317 317 316 316 316 316 317 318 318 318 319 320 320 321 321 322 322 323 324 325 325 325 326 327 328 330 331 332 334 334 334 335 335 335 335 335 335 334 334 334 334 334 333 334 335 335 335 335 335 335 335 336 335 334 334
313 311 311 313 313 315 316 316 315 315 314 314 314 314 315 315 316 317 318 318 319 320 320 321 321 322 322 323 324 325 326 327 328 329 331 332 333 333 334 334 334 334 334 334 333 333 333 334 334 334 335 335 335 335 334 335 335 334 335 336 336 335
313 312 312 313 313 315 315 315 314 313 313 313 313 313 314 314 315 316 316 317 317 318 319 320 320 320 321 322 323 324 325 326 328 329 329 331 332 333 333 333 333 333 333 333 333 332 333 333 333 333 335 336 335 334 334 333 333 333 334 335 335 336
313 312 312 313 313 314 315 314 313 313 313 313 313 313 313 313 314 315 315 315 316 317 318 319 319 319 320 321 324 324 325 327 328 329 328 330 331 332 333 332 332 332 332 332 332 332 332 333 333 332 334 335 335 335 335 335 334 333 333 334 334 336
316 313 312 313 313 313 314 314 314 314 314 314 314 313 313 313 314 315 315 315 315 315 316 317 318 318 318 320 323 323 324 325 327 327 329 330 330 331 331 332 332 332 331 331 331 332 332 332 333 332 333 335 336 336 336 336 336 334 333 333 334 335
317 315 313 313 313 313 313 314 314 314 314 314 313 313 313 314 315 315 315 315 315 315 316 316 317 317 317 319 322 322 321 322 322 324 326 327 328 328 328 330 332 332 331 331 331 331 331 332 333 332 333 333 334 335 335 336 337 336 334 334 334 335
316 317 316 314 313 313 313 313 314 314 314 314 314 313 313 314 315 315 315 315 315 316 317 316 316 317 317 318 321 322 321 321 321 321 322 323 324 325 326 328 329 331 331 331 331 331 331 332 333 333 332 333 334 334 334 334 336 336 336 335 335 336
318 319 318 317 315 313 314 313 314 314 314 314 314 313 312 313 315 315 315 316 316 317 318 318 316 316 317 318 321 323 322 321 321 321 321 322 323 323 325 326 328 329 330 330 330 331 331 332 332 332 333 333 333 333 333 333 334 335 336 337 336 336
321 320 320 319 317 314 314 314 314 314 314 314 314 313 312 313 314 315 315 316 317 318 318 318 318 317 318 318 321 323 322 321 321 322 322 322 324 324 325 326 327 329 329 330 329 329 330 331 331 331 332 333 333 334 333 333 334 334 334 336 337 336
322 321 320 319 318 316 315 315 314 314 314 314 314 314 313 313 314 314 315 316 317 319 319 318 318 318 317 320 323 323 322 322 322 322 322 323 324 325 326 327 328 329 330 330 329 328 330 331 331 331 331 333 334 335 336 333 332 333 333 334 335 336
322 322 321 320 319 318 316 316 315 315 315 315 314 314 313 312 313 313 314 317 318 318 319 318 318 318 317 319 322 321 321 322 322 322 323 323 323 324 326 327 328 329 329 330 330 330 330 330 331 331 332 333 331 333 339 334 329 331 332 333 335 335
323 322 322 321 320 319 318 317 316 316 316 316 315 314 314 312 312 313 313 316 317 316 317 318 318 318 318 318 320 321 321 321 322 322 322 323 322 323 326 327 326 327 329 330 330 330 330 330 331 331 331 332 331 334 338 332 328 331 332 332 334 334
323 323 322 321 320 319 318 318 317 317 316 316 315 314 314 313 312 313 313 315 317 316 317 318 318 318 318 318 319 321 322 321 321 322 321 322 322 322 324 325 323 324 327 329 330 330 330 329 329 330 331 331 332 333 334 331 330 332 332 332 333 333
323 323 323 321 320 320 319 319 318 318 317 317 316 315 314 313 312 313 313 314 315 315 317 318 319 319 319 319 319 321 322 321 321 321 321 322 322 322 323 323 322 322 323 326 329 329 329 329 328 329 330 330 331 331 332 332 332 332 333 333 332 332
322 322 323 322 321 320 320 320 319 319 318 318 317 315 315 314 313 312 313 314 315 316 316 317 318 318 318 319 320 321 321 320 320 321 321 321 321 322 322 322 321 320 321 322 326 329 329 329 329 329 330 329 330 330 330 331 331 331 334 334 332 331
322 323 323 322 321 320 320 320 319 319 318 318 317 316 315 315 313 312 312 314 315 316 316 316 317 318 318 319 319 319 319 319 320 320 320 319 319 321 321 321 320 320 320 320 323 326 327 328 329 329 329 329 329 329 329 330 331 331 332 333 334 332
323 324 323 323 322 320 320 320 320 320 319 319 318 316 315 315 314 312 312 313 314 315 316 316 317 318 319 319 319 319 318 318 318 318 318 317 317 318 319 321 321 321 320 320 321 323 325 326 327 328 329 329 329 329 329 329 330 331 331 332 333 332
323 324 323 323 323 320 320 321 320 320 320 319 318 316 315 315 314 313 312 312 313 314 315 316 317 318 319 319 318 318 318 317 317 316 316 316 316 316 316 319 321 321 320 320 320 322 323 323 325 325 326 328 328 329 329 329 329 329 330 331 331 332
324 324 324 323 323 322 321 322 321 320 320 320 319 317 316 315 314 313 312 312 313 313 314 316 317 319 318 318 318 317 317 317 316 316 316 316 316 315 316 319 321 321 320 319 320 321 322 322 323 323 324 326 327 327 328 329 329 328 328 329 330 331
324 324 324 323 324 324 323 322 322 321 320 320 319 318 316 315 314 313 313 313 312 312 313 315 317 318 318 317 317 317 317 317 316 316 316 315 315 315 316 320 321 320 320 319 319 320 320 321 321 321 322 324 325 326 326 327 328 328 329 329 329 330
325 324 324 324 325 325 323 323 322 321 321 320 320 319 317 315 314 314 313 313 313 312 313 315 317 318 317 317 317 317 317 316 315 315 315 314 314 314 315 318 319 319 319 318 318 319 319 320 320 320 321 323 325 325 325 326 326 327 328 329 329 329
326 326 325 325 325 325 324 323 323 322 321 321 320 319 318 316 315 314 313 313 313 312 313 314 316 317 317 317 317 316 315 315 315 314 314 313 313 314 315 316 317 317 317 317 317 317 318 318 318 319 320 322 324 324 324 324 325 326 327 328 329 329
326 326 326 325 325 325 324 324 323 322 322 321 320 319 318 316 316 314 314 314 313 312 312 313 315 317 317 316 316 316 315 314 314 314 313 313 312 313 314 314 315 315 315 314 315 315 315 316 316 317 319 320 321 321 323 324 325 325 326 326 328 329
327 326 326 325 325 325 325 324 324 323 323 322 321 320 319 317 316 315 314 314 313 312 312 313 315 316 317 316 316 315 315 314 314 313 312 312 312 313 313 313 313 312 313 312 313 313 313 313 314 314 316 317 318 318 320 322 324 325 326 326 326 327
Wind_Speed
10 11 10 11 11 12 12 10 9 8 8 9 8 9 9 9 8 7 7 7 7 7 6 4 4 5 5 7 7 7 7 6 3 4 5 3 1 4 4 2 1 2 1 2 2 1 3 4 5 6 6 5 5 5 4 5 6 6 5 4 3 3
11 11 11 11 12 12 12 10 9 9 8 9 9 8 9 9 9 8 7 6 6 6 5 4 4 5 6 7 6 6 6 5 5 6 6 5 3 2 2 3 3 4 4 3 3 2 2 3 4 5 6 6 6 5 5 5 6 6 5 5 4 4
11 11 11 11 12 12 12 11 11 11 10 8 8 7 8 9 9 9 8 7 6 5 5 5 5 5 6 6 5 5 5 5 6 7 6 5 4 3 1 1 2 2 3 4 4 4 4 4 4 5 6 6 6 6 6 6 6 8 7 6 6 5
11 11 11 12 13 13 13 12 12 13 12 9 7 7 8 8 8 9 9 8 6 6 5 5 5 5 6 5 4 4 3 4 5 5 5 5 4 4 2 1 1 2 3 3 5 5 6 7 7 6 5 5 6 6 6 6 7 9 9 8 7 7
12 13 13 14 15 14 13 13 13 14 13 11 8 7 7 7 8 9 10 9 8 7 6 6 6 6 5 5 4 4 3 3 3 4 4 5 5 5 4 3 3 3 3 3 4 5 6 8 9 9 7 6 6 6 6 6 7 9 10 9 8 7
15 15 15 15 14 13 13 13 13 14 13 11 8 7 7 7 8 8 9 10 10 9 7 6 6 6 6 5 4 4 4 3 3 3 3 4 5 6 6 5 4 5 5 4 5 5 6 7 9 11 10 9 8 7 7 6 6 9 11 10 8 8
17 17 16 15 14 14 13 12 12 12 13 12 9 9 9 8 8 7 8 10 10 10 9 8 7 6 6 6 5 4 3 2 2 2 2 2 3 5 6 6 6 6 6 5 5 6 7 7 9 11 11 11 9 9 8 8 7 8 11 10 8 8
17 18 17 16 16 16 15 14 12 11 12 12 11 11 10 9 8 7 8 9 10 10 10 9 8 7 7 6 6 5 4 2 1 1 2 2 2 3 4 6 7 7 6 6 7 7 7 8 9 11 12 11 11 11 10 10 8 8 11 11 9 8
17 18 17 17 18 17 16 16 14 12 12 12 13 12 11 10 9 8 9 9 9 9 9 9 9 8 8 7 7 6 5 3 2 2 2 2 2 2 3 5 6 7 7 7 7 7 7 8 10 11 12 12 12 13 11 10 10 10 12 12 10 8
17 17 16 17 18 16 16 17 16 14 12 12 13 12 11 11 10 9 9 9 9 9 9 9 9 9 8 8 8 7 5 4 3 3 3 3 2 3 4 4 5 6 6 7 7 8 9 10 11 12 12 12 12 12 10 9 10 10 12 13 12 9
16 16 15 17 17 16 16 17 17 16 14 13 12 11 11 11 10 9 10 9 9 8 8 8 9 9 8 8 8 8 7 5 4 3 3 3 3 4 4 5 5 6 5 6 7 8 9 9 10 12 12 12 11 10 9 9 9 11 13 13 12 10
15 15 15 16 16 16 16 17 17 18 17 14 12 11 11 11 10 9 9 9 9 8 7 7 7 8 8 7 7 7 7 6 5 4 4 3 4 5 6 5 5 5 6 6 7 7 7 7 9 10 11 11 10 9 8 9 9 11 12 12 12 11
15 15 15 16 16 16 16 16 18 18 18 16 14 12 12 11 11 10 9 9 8 8 8 7 7 7 7 6 7 7 7 7 6 5 5 4 5 6 7 6 5 5 6 5 6 6 6 7 7 7 8 9 10 9 8 9 10 12 12 12 12 12
15 14 15 16 16 16 15 16 17 17 17 17 16 15 13 13 12 11 10 9 8 8 8 8 7 7 7 6 6 6 6 7 6 6 5 5 5 6 7 8 7 7 6 4 4 4 5 6 6 6 6 7 9 9 9 9 10 11 12 13 12 12
13 14 15 16 16 15 14 15 16 17 18 18 18 17 16 15 13 12 11 10 9 8 8 8 7 8 9 8 7 6 5 5 5 6 6 5 5 6 7 8 8 8 6 5 5 5 5 5 5 6 5 6 8 8 8 9 10 11 11 12 12 12
11 13 14 15 15 13 13 13 15 16 17 17 18 18 18 16 13 12 11 10 9 8 8 8 8 8 9 7 6 5 5 4 4 5 6 5 5 6 7 7 6 7 7 7 7 6 6 6 5 6 6 6 6 7 7 8 9 10 10 10 11 12
10 11 12 13 13 12 11 11 12 13 14 16 18 19 19 16 14 12 11 11 10 9 8 8 8 8 8 7 5 3 4 4 3 4 6 6 6 7 8 8 8 6 7 8 7 5 5 5 6 7 7 7 7 8 7 7 8 10 10 10 11 13
7 7 9 10 11 10 9 9 10 11 13 15 18 19 19 17 14 12 11 11 11 10 8 7 7 8 8 7 5 4 4 5 5 5 6 7 7 7 7 8 8 8 7 7 6 4 4 5 6 7 8 8 8 8 7 7 9 10 12 12 11 12
4 4 5 7 9 9 8 8 10 11 12 15 18 19 19 17 14 13 12 11 11 11 11 9 7 7 7 7 5 5 6 6 6 6 6 7 7 9 9 8 8 8 7 6 4 4 3 5 6 6 8 8 8 8 8 8 9 10 12 13 12 12
1 1 2 4 6 7 8 9 11 12 13 15 18 19 19 17 14 13 13 12 12 13 12 11 9 7 6 6 5 5 7 8 8 8 8 8 9 10 10 9 9 8 8 6 3 4 4 4 4 5 7 8 9 9 8 8 9 11 11 11 11 11
3 2 2 3 6 7 8 10 12 13 13 14 16 18 19 17 15 14 13 12 13 14 13 11 9 7 6 6 4 5 8 9 9 9 8 8 9 10 9 9 9 8 7 7 4 3 2 2 2 3 5 5 7 8 9 9 10 11 11 10 9 10
7 6 4 4 5 6 7 9 10 12 12 12 14 17 18 17 15 14 13 12 12 13 13 11 10 7 6 5 3 6 9 9 10 9 9 9 9 9 9 8 9 8 8 8 7 4 1 1 2 2 1 2 2 5 8 10 11 12 12 12 11 11
10 8 7 5 5 5 5 6 8 10 11 11 13 14 15 15 14 13 13 12 12 13 13 12 11 9 7 5 4 6 9 9 9 10 9 10 10 10 10 9 9 9 8 9 8 5 2 1 3 2 1 0 1 1 4 7 10 13 13 13 14 13
12 11 9 8 6 4 3 4 6 7 9 10 11 12 13 14 14 13 12 11 11 13 13 12 11 10 7 5 4 6 8 9 9 9 9 10 11 12 11 10 9 9 8 9 8 6 4 2 3 3 0 1 1 1 1 2 5 9 11 13 14 14
13 13 12 9 8 6 4 3 3 4 7 9 10 11 12 14 15 14 13 10 10 12 13 12 11 10 8 5 4 5 8 9 9 8 9 10 11 12 11 11 11 10 9 8 8 7 6 5 2 4 2 0 1 0 2 1 3 4 7 10 13 14
13 12 12 12 11 9 7 5 4 4 5 8 9 10 11 13 14 15 13 10 9 10 11 10 10 9 8 6 5 5 8 9 9 8 9 10 11 11 10 11 12 12 11 9 7 6 6 7 5 4 5 4 3 1 1 1 1 2 3 5 8 12
15 15 14 15 15 13 11 9 6 5 4 6 7 8 9 10 12 14 12 10 9 9 10 10 9 8 8 7 6 6 7 8 8 7 8 10 11 11 9 10 12 12 13 11 8 6 6 7 6 4 3 5 7 6 5 3 1 1 3 2 2 5
17 18 16 15 16 17 15 11 8 6 4 4 5 6 7 8 9 12 12 10 9 9 9 10 9 7 7 7 7 7 6 7 7 7 8 10 11 10 9 10 12 13 13 13 11 9 7 6 6 5 4 4 5 7 8 7 5 3 2 1 3 4
19 19 18 15 17 20 18 13 10 8 5 4 4 5 6 7 7 10 11 11 10 9 9 10 9 7 5 5 7 7 7 7 7 7 9 10 11 10 8 9 11 13 14 13 12 11 9 7 6 5 5 4 4 5 6 7 8 7 5 3 3 2
24 23 22 19 20 23 20 15 13 11 7 5 3 3 5 6 6 8 10 11 11 10 10 12 11 7 4 4 5 6 6 6 7 8 9 10 11 11 10 10 10 11 13 13 12 12 11 10 8 6 6 5 4 4 4 4 4 6 6 5 4 4
28 27 27 25 25 25 21 16 15 13 10 6 4 3 4 5 5 6 8 10 11 12 11 13 12 7 4 4 5 5 5 5 7 9 10 11 12 13 12 10 9 9 11 12 11 11 11 11 10 8 7 7 6 5 4 4 5 6 6 5 4 4
29 28 27 28 27 24 21 18 17 15 12 8 6 5 4 4 5 5 7 9 10 12 12 13 12 8 5 4 4 5 5 6 7 9 11 13 13 14 13 9 7 8 10 11 12 12 12 11 11 9 8 7 7 7 7 7 7 9 9 8 7 5
27 26 25 27 26 23 21 20 18 16 15 11 8 7 6 4 5 5 6 8 9 11 11 13 12 8 6 6 5 5 6 6 8 10 12 14 14 14 13 10 7 8 9 10 11 12 12 12 11 11 9 7 6 6 8 8 8 9 10 10 9 6
24 23 22 24 23 21 21 20 18 17 16 13 10 9 8 6 5 5 6 7 8 9 10 11 11 8 7 7 4 3 4 6 9 11 13 14 14 13 12 11 8 8 8 9 10 11 11 11 11 11 10 8 6 5 6 6 7 9 9 10 10 8
21 21 20 20 21 21 21 20 19 18 17 15 12 11 9 8 6 5 6 7 8 8 8 9 9 8 7 6 4 3 5 8 10 12 13 14 13 13 12 10 9 9 9 9 10 10 11 12 12 13 12 10 8 7 7 6 6 7 9 10 11 10
18 18 18 19 20 21 21 20 20 19 19 17 15 13 11 9 7 6 6 7 7 8 8 8 8 8 8 7 5 5 7 9 11 11 12 13 14 13 11 10 10 10 11 11 11 12 12 12 13 14 13 12 10 9 7 6 5 6 7 10 11 11
14 16 17 18 19 20 21 21 21 20 20 19 18 15 13 11 9 7 7 7 7 8 8 8 8 8 9 8 6 6 8 10 10 10 11 12 12 11 10 10 11 11 12 12 12 13 13 13 14 14 14 13 13 12 10 8 6 5 6 9 10 11
Wind_Direction
54 53 50 47 43 36 34 34 34 26 20 16 12 9 8 11 15 15 12 17 17 15 15 2 352 346 9 25 17 22 25 32 24 327 340 345 60 109 113 108 145 221 292 337 331 95 132 151 156 161 168 177 183 191 194 188 183 177 182 203 219 221
50 46 42 40 38 37 33 31 32 28 23 17 13 9 4 8 14 19 17 16 19 21 19 7 4 356 14 22 3 22 31 18 21 8 349 339 349 51 101 138 179 214 217 237 264 251 209 170 159 165 175 188 193 197 201 202 207 203 202 212 221 216
48 42 36 37 36 35 33 32 32 29 26 19 14 11 5 6 11 18 22 20 19 18 14 6 9 11 27 29 356 12 30 7 19 24 3 351 348 340 344 159 187 243 238 239 253 251 241 224 204 193 188 197 206 212 212 211 220 221 218 218 216 208
47 42 39 40 40 39 37 35 33 29 24 19 14 9 7 10 15 22 27 30 29 22 14 5 6 10 26 37 8 0 16 10 20 25 11 2 353 334 315 285 313 317 290 268 260 251 245 240 235 231 215 214 221 227 232 233 230 225 223 222 209 194
47 47 47 44 42 41 38 34 32 28 24 23 19 16 24 32 30 29 31 34 36 32 22 10 6 5 15 23 10 356 357 9 16 17 6 354 347 335 316 305 317 303 292 289 274 260 249 244 245 247 239 232 234 235 240 247 240 229 224 218 204 189
54 52 49 44 40 37 33 30 28 28 30 33 34 37 47 49 40 35 33 33 35 35 31 25 15 8 12 11 5 357 349 353 354 357 355 343 337 329 321 313 305 283 278 287 282 269 255 249 248 250 248 242 238 236 238 251 251 232 222 213 203 192
58 56 52 46 39 36 32 29 26 28 35 41 43 44 46 43 37 35 36 36 34 32 33 34 28 17 13 8 3 356 346 342 340 337 329 327 328 324 314 295 283 274 271 271 271 267 258 251 247 248 251 248 241 240 240 251 260 236 221 211 204 195
58 55 51 45 42 41 37 34 32 30 37 41 42 43 41 38 36 39 40 40 36 33 33 32 30 26 17 11 5 355 349 342 329 318 298 284 294 306 296 280 271 266 261 258 261 264 261 253 250 250 250 251 249 249 247 245 252 239 221 210 205 198
55 50 45 41 42 43 40 37 37 35 36 37 40 46 46 45 47 48 44 39 37 35 36 31 27 25 19 15 10 2 355 347 334 304 275 264 257 256 269 274 268 260 253 252 256 259 259 253 252 252 251 253 254 254 251 240 243 239 220 209 206 199
53 47 40 38 41 44 41 37 38 38 36 35 43 50 51 52 53 52 49 42 35 34 35 32 28 24 19 15 15 14 7 356 342 318 293 270 259 250 252 263 266 260 255 251 252 254 256 253 252 254 253 252 253 253 246 233 236 231 215 208 206 200
54 47 39 39 43 45 41 40 41 41 40 41 45 47 46 49 48 47 45 39 35 35 31 28 28 24 19 16 12 14 13 9 353 327 309 286 271 269 261 257 258 254 255 252 249 253 258 260 257 256 255 250 250 248 235 227 227 218 212 209 204 202
52 47 41 41 45 44 43 44 45 44 45 45 43 40 38 38 37 36 32 28 28 29 25 25 24 13 9 11 8 5 4 4 356 336 314 292 277 281 280 275 267 252 252 256 255 259 267 269 262 255 254 248 242 237 226 226 223 212 211 208 201 203
52 48 44 45 46 45 46 46 46 44 42 40 38 35 30 25 22 21 18 16 14 14 15 17 13 358 350 355 358 356 353 354 353 341 324 305 288 287 291 297 302 282 272 275 271 270 272 271 261 248 244 237 231 229 228 229 222 214 212 207 202 204
53 51 49 51 51 49 47 45 42 40 35 31 29 26 22 14 7 6 6 5 5 7 5 2 2 353 340 336 336 340 344 346 346 344 339 323 309 300 299 306 311 307 298 286 280 276 271 271 255 238 234 231 227 226 231 230 221 216 215 212 210 207
55 55 56 56 55 53 47 43 39 37 34 28 23 19 15 9 1 357 358 358 358 0 357 355 356 346 333 326 320 319 327 333 339 343 344 342 335 325 316 314 311 308 298 268 269 273 266 265 251 240 242 237 232 226 228 229 221 218 218 215 216 213
56 56 59 60 59 57 49 46 45 42 37 28 20 14 9 6 0 355 355 358 357 356 353 348 347 341 335 330 318 314 318 322 328 331 335 345 352 351 344 339 329 311 293 278 276 268 254 250 244 241 239 235 237 230 226 228 221 219 220 216 217 216
58 56 58 62 64 62 56 54 52 46 36 26 19 13 9 8 4 359 357 357 358 356 350 343 340 341 347 346 336 341 349 343 341 335 334 340 348 356 356 355 354 334 300 288 278 259 246 245 246 245 236 230 236 234 229 233 231 226 223 220 219 217
56 49 52 60 63 63 61 58 53 44 35 26 20 15 12 11 9 3 359 356 355 352 346 341 339 339 348 353 355 11 15 10 5 359 350 345 349 355 357 356 355 351 326 296 268 235 232 250 255 249 238 233 238 240 237 236 239 235 228 227 227 222
52 42 40 50 58 61 60 56 51 43 37 29 21 18 14 13 10 2 359 358 355 352 346 337 333 340 353 356 1 18 20 16 8 1 353 344 346 352 357 357 351 350 346 319 263 233 254 269 261 251 242 237 240 245 242 235 236 238 237 238 236 229
27 43 24 26 38 45 47 46 43 38 35 29 22 20 16 12 10 3 1 1 360 359 353 340 329 335 359 3 3 25 25 18 12 4 355 343 339 343 349 354 350 345 343 334 283 252 272 269 258 259 250 241 243 248 246 238 232 233 239 244 241 230
268 271 306 348 11 23 32 35 33 32 30 27 21 19 16 13 11 8 6 6 4 3 358 351 341 335 1 12 10 27 24 19 16 9 0 352 344 339 340 342 344 343 340 334 309 275 266 245 251 267 257 249 249 248 245 238 231 230 235 242 243 234
265 274 287 320 354 10 25 30 30 30 30 28 22 18 17 13 9 9 11 9 6 4 3 3 359 353 4 15 24 30 24 18 13 6 359 358 357 351 346 342 343 344 345 336 316 302 286 240 242 240 237 279 274 251 246 241 235 231 230 234 239 242
260 272 285 300 326 352 14 26 28 31 34 31 25 20 17 13 8 7 12 13 10 12 15 10 4 0 2 14 40 32 23 17 8 1 358 3 8 8 4 358 355 351 348 345 333 324 333 279 227 210 150 269 339 315 259 252 246 236 229 229 234 241
259 269 279 284 293 311 344 8 19 28 32 32 28 20 16 14 9 5 8 14 12 11 14 11 6 5 5 16 25 15 17 16 7 359 0 8 12 15 18 15 9 1 353 353 351 342 343 343 214 210 266 150 111 55 264 282 277 252 236 228 228 235
260 269 277 279 280 282 293 327 357 16 24 29 28 19 12 11 8 3 2 9 9 3 3 1 3 8 9 11 4 10 23 18 10 4 4 11 14 17 23 22 16 11 4 358 353 344 340 347 281 231 238 187 96 91 241 295 316 278 251 235 227 229
264 275 282 280 276 276 279 292 318 346 9 21 23 17 12 8 4 359 357 359 0 359 357 354 359 6 8 9 3 14 25 15 9 9 4 6 14 18 19 19 17 14 9 2 352 346 341 346 333 259 238 245 262 286 313 336 317 301 298 260 236 232
267 274 276 272 268 266 270 274 293 323 348 11 16 16 13 8 2 357 352 349 346 351 354 355 359 2 5 12 9 8 12 6 3 5 2 4 12 17 14 15 17 16 12 7 2 355 341 342 345 324 286 269 265 265 275 295 308 319 328 323 294 260
270 269 266 270 266 258 263 268 276 299 318 352 8 11 9 6 0 355 352 348 343 347 355 356 358 354 350 2 14 16 11 3 0 360 1 4 10 15 15 16 18 17 14 11 8 4 350 342 339 334 333 312 288 277 269 262 258 265 286 315 330 321
270 267 261 272 271 256 257 264 264 277 293 316 350 1 4 1 354 352 353 352 347 349 358 359 360 357 340 350 11 16 12 8 5 3 3 3 6 11 12 14 18 17 14 11 10 7 5 0 349 340 337 326 319 316 298 273 256 252 251 262 284 289
267 266 260 263 265 253 249 255 255 261 275 286 311 337 355 353 344 346 350 354 352 350 356 358 356 354 348 355 6 8 12 13 7 6 6 1 360 1 358 360 11 16 13 10 9 8 10 12 8 357 341 327 311 308 309 295 272 267 264 259 258 253
263 263 260 257 255 248 243 250 254 255 264 271 277 297 335 343 336 341 345 350 353 350 352 354 352 354 0 3 6 6 4 356 356 3 4 0 358 356 352 348 358 8 8 5 4 4 5 8 11 6 350 339 324 305 286 278 294 297 284 268 267 265
258 258 259 254 250 246 243 249 255 253 257 263 264 271 302 327 326 335 340 344 349 349 350 353 357 6 15 9 7 358 342 340 353 356 355 356 356 355 352 345 345 352 355 357 357 358 359 1 5 4 0 355 340 323 304 288 291 289 279 275 277 277
253 256 255 251 249 249 246 248 253 253 254 256 255 261 278 303 313 322 333 337 342 345 347 351 356 7 12 1 348 338 329 339 351 349 349 352 351 352 352 346 340 340 347 354 354 354 355 357 0 360 358 356 342 324 309 301 297 288 281 280 281 281
250 254 252 251 251 249 247 249 254 254 253 252 250 255 265 279 297 308 322 330 335 338 340 345 348 352 358 351 333 325 329 337 344 346 349 349 348 350 348 345 345 344 348 352 352 352 350 349 352 354 355 354 345 334 326 316 302 292 286 279 273 273
250 255 255 255 252 248 248 251 254 253 252 251 248 251 255 263 281 295 308 320 327 330 330 336 339 334 339 344 331 332 344 344 345 347 347 346 346 346 344 344 349 353 353 351 348 348 346 344 343 342 347 354 352 346 344 338 317 294 283 277 272 269
255 259 260 258 254 252 252 253 256 255 255 252 247 245 246 253 268 281 295 309 318 324 321 323 328 320 318 322 313 320 342 347 347 346 345 343 342 342 342 344 348 353 356 355 351 348 344 342 339 336 335 340 344 345 348 347 326 297 282 277 274 270
263 263 263 261 259 258 255 256 258 258 257 253 246 243 244 250 261 273 285 297 308 317 318 314 314 310 309 307 299 312 335 341 342 343 346 345 341 342 346 350 352 353 354 355 352 347 344 338 335 333 328 327 331 335 344 350 337 312 289 281 277 273